Weather History for Lafayette, LA

Change the Weather History Date:

Thursday, January 10, 2013

  Actual Average Record
Temperature  
Mean Temperature 68 °F 52 °F  
Max Temperature 73 °F 62 °F 79 °F (1950)
Min Temperature 63 °F 43 °F 14 °F (1962)
Degree Days  
Heating Degree Days 0 13  
Month to date heating degree days 123 130  
Since 1 July heating degree days 613 684  
Cooling Degree Days 2    
Growing Degree Days 17 (Base 50)    
Moisture  
Dew Point 64 °F    
Average Humidity 97    
Maximum Humidity 100    
Minimum Humidity 93    
Precipitation  
Precipitation 3.18 in 0.19 in 4.66 in (1991)
Month to date precipitation 8.63 1.83  
Year to date precipitation 8.63 1.83  
Snow  
Snow 0.00 in 0.00 in 0.00 in ()
Month to date snowfall 0.0 0.0  
Since 1 July snowfall 0.0 0.0  
Snow Depth 0.00 in    
Sea Level Pressure  
Sea Level Pressure 30.04 in    
Wind  
Wind Speed 8 mph (South)    
Max Wind Speed 25 mph    
Max Gust Speed 38 mph    
Visibility 5 miles    
Events Rain , Thunderstorm    
T = Trace of Precipitation, MM = Missing Value Source: NWS Daily Summary

Daily Weather History Graph

Daily Weather History Graph

Search for Another Location

Airport:

Trip Planner

Search our weather history database for the weather conditions in past years. The results will help you decide how hot, cold, wet, or windy it might be!

Date:

Astronomy

Jan. 10, 2013 Rise Set
Actual Time 7:05 AM CST 5:26 PM CST
Civil Twilight 6:39 AM CST 5:52 PM CST
Nautical Twilight 6:09 AM CST 6:21 PM CST
Astronomical Twilight 5:40 AM CST 6:50 PM CST
Moon 5:45 AM CST (1/10) 4:33 PM CST (1/10)
Length of Visible Light 11h 12m
Length of Day
10h 20m
Waning Crescent, 2% of the Moon is Illuminated
Jan 10
Waning Crescent
Jan 11
New
Jan 18
First Quarter
Jan 26
Full
Feb 3
Last Quarter

Hourly Weather History & Observations

Time (CST) Temp. Dew Point Humidity Pressure Visibility Wind Dir Wind Speed Gust Speed Precip Events Conditions
12:04 AM 69.8 °F 68.0 °F 94% 30.08 in 6.0 mi ESE 5.8 mph - 0.01 in Rain Light Rain
12:53 AM 70.0 °F 68.0 °F 93% 30.06 in 4.0 mi Variable 4.6 mph - 0.05 in Rain , Thunderstorm Light Rain
1:13 AM 71.6 °F 68.0 °F 88% 30.05 in 5.0 mi East 8.1 mph - 0.02 in Rain Rain
1:28 AM 71.6 °F 69.8 °F 94% 30.08 in 5.0 mi Variable 3.5 mph - 0.06 in Rain , Thunderstorm Thunderstorms and Rain
1:43 AM 71.6 °F 69.8 °F 94% 30.06 in 4.0 mi East 6.9 mph - 0.10 in Rain , Thunderstorm Rain
1:53 AM 71.1 °F 69.1 °F 93% 30.06 in 4.0 mi ESE 5.8 mph - 0.13 in Rain , Thunderstorm Rain
2:04 AM 71.6 °F 69.8 °F 94% 30.03 in 8.0 mi East 6.9 mph - 0.01 in Rain Light Rain
2:15 AM 71.6 °F 69.8 °F 94% 30.02 in 8.0 mi ESE 8.1 mph 16.1 mph 0.01 in Thunderstorm Thunderstorm
2:46 AM 71.6 °F 69.8 °F 94% 30.02 in 8.0 mi ESE 8.1 mph 16.1 mph 0.02 in Rain Light Rain
2:53 AM 71.1 °F 69.1 °F 93% 30.01 in 6.0 mi ESE 8.1 mph 16.1 mph 0.03 in Rain Rain
3:00 AM 71.6 °F 69.8 °F 94% 30.01 in 7.0 mi ESE 8.1 mph - 0.00 in Rain , Thunderstorm Light Rain
3:33 AM 71.6 °F 69.8 °F 94% 29.99 in 7.0 mi ESE 6.9 mph 16.1 mph 0.01 in Rain Light Rain
3:40 AM 71.6 °F 69.8 °F 94% 29.99 in 8.0 mi Variable 6.9 mph - N/A Rain , Thunderstorm Light Rain
3:53 AM 72.0 °F 69.1 °F 91% 29.96 in 10.0 mi East 9.2 mph 18.4 mph 0.02 in   Overcast
4:01 AM 71.6 °F 69.8 °F 94% 29.97 in 10.0 mi ESE 9.2 mph 19.6 mph N/A Thunderstorm Thunderstorm
4:23 AM 71.6 °F 69.8 °F 94% 29.97 in 9.0 mi SE 9.2 mph 23.0 mph N/A   Overcast
4:45 AM 71.6 °F 69.8 °F 94% 29.96 in 9.0 mi SE 10.4 mph 23.0 mph 0.00 in Rain , Thunderstorm Light Rain
4:53 AM 72.0 °F 69.1 °F 91% 29.98 in 9.0 mi SSE 9.2 mph 17.3 mph 0.00 in Rain , Thunderstorm Light Rain
5:22 AM 71.6 °F 69.8 °F 94% 30.03 in 2.0 mi West 9.2 mph - 0.13 in Rain , Thunderstorm Heavy Thunderstorms and Rain
5:27 AM 71.6 °F 68.0 °F 88% 30.06 in 0.8 mi SSW 18.4 mph 25.3 mph 0.46 in Rain , Thunderstorm Heavy Thunderstorms and Rain
5:40 AM 66.2 °F 64.4 °F 94% 30.04 in 1.2 mi South 17.3 mph 24.2 mph 0.81 in Rain , Thunderstorm Heavy Thunderstorms and Rain
5:48 AM 66.2 °F 64.4 °F 94% 30.07 in 1.0 mi West 19.6 mph 38.0 mph 1.03 in Rain , Thunderstorm Heavy Thunderstorms and Rain
5:53 AM 66.9 °F 64.0 °F 90% 30.08 in 1.0 mi West 11.5 mph 38.0 mph 1.13 in Rain , Thunderstorm Heavy Thunderstorms and Rain
5:58 AM 66.2 °F 64.4 °F 94% 30.09 in 1.2 mi West 13.8 mph - N/A Rain , Thunderstorm Heavy Thunderstorms and Rain
6:13 AM 66.2 °F 62.6 °F 88% 30.07 in 3.0 mi WNW 19.6 mph - 0.23 in Rain , Thunderstorm Heavy Thunderstorms and Rain
6:23 AM 64.4 °F 62.6 °F 94% 30.02 in 1.8 mi NNW 19.6 mph 28.8 mph 0.39 in Rain , Thunderstorm Heavy Thunderstorms and Rain
6:27 AM 64.4 °F 62.6 °F 94% 30.01 in 2.0 mi NNW 19.6 mph 28.8 mph 0.41 in Rain , Thunderstorm Heavy Thunderstorms and Rain
6:36 AM 64.4 °F 62.6 °F 94% 30.01 in 6.0 mi North 17.3 mph 28.8 mph 0.43 in Rain Rain
6:53 AM 64.9 °F 62.1 °F 90% 30.06 in 8.0 mi WNW 13.8 mph - 0.46 in Rain Rain
7:02 AM 64.4 °F 62.6 °F 94% 30.05 in 8.0 mi NNW 11.5 mph - 0.01 in Rain Rain
7:18 AM 64.4 °F 62.6 °F 94% 30.07 in 6.0 mi NNW 10.4 mph - 0.05 in Rain , Thunderstorm Rain
7:28 AM 64.4 °F 62.6 °F 94% 30.07 in 6.0 mi NNW 10.4 mph - 0.08 in Rain , Thunderstorm Rain
7:32 AM 64.4 °F 62.6 °F 94% 30.06 in 5.0 mi North 13.8 mph - 0.09 in Rain , Thunderstorm Heavy Rain
7:53 AM 64.9 °F 63.0 °F 93% 30.09 in 7.0 mi ENE 5.8 mph - 0.15 in Rain , Thunderstorm Light Rain
8:53 AM 64.9 °F 62.1 °F 90% 30.10 in 5.0 mi NE 11.5 mph - 0.22 in Rain , Thunderstorm Heavy Thunderstorms and Rain
9:33 AM 64.4 °F 62.6 °F 94% 30.02 in 6.0 mi NE 20.7 mph 25.3 mph 0.15 in Rain , Thunderstorm Heavy Thunderstorms and Rain
9:51 AM 64.4 °F 62.6 °F 94% 30.04 in 9.0 mi NNE 13.8 mph 25.3 mph 0.18 in Rain , Thunderstorm Heavy Thunderstorms and Rain
9:53 AM 64.0 °F 62.1 °F 93% 30.04 in 10.0 mi NE 13.8 mph 25.3 mph 0.18 in Rain , Thunderstorm Heavy Thunderstorms and Rain
10:53 AM 63.0 °F 62.1 °F 97% 30.09 in 4.0 mi Variable 3.5 mph - 0.14 in Rain , Thunderstorm Heavy Thunderstorms and Rain
11:05 AM 64.4 °F 62.6 °F 94% 30.08 in 2.0 mi ESE 5.8 mph - 0.07 in Rain , Thunderstorm Heavy Thunderstorms and Rain
11:18 AM 62.6 °F 62.6 °F 100% 30.04 in 3.0 mi ENE 6.9 mph 18.4 mph 0.12 in Rain , Thunderstorm Heavy Thunderstorms and Rain
11:53 AM 64.0 °F 62.1 °F 93% 30.06 in 4.0 mi Calm Calm - 0.21 in Rain , Thunderstorm Heavy Thunderstorms and Rain
11:54 AM 64.4 °F 62.6 °F 94% 30.06 in 3.0 mi Calm Calm - 0.00 in Rain Rain
11:57 AM 64.4 °F 60.8 °F 88% 30.05 in 2.5 mi SE 3.5 mph - 0.02 in Rain , Thunderstorm Heavy Thunderstorms and Rain
12:18 PM 64.4 °F 62.6 °F 94% 30.01 in 1.8 mi Variable 4.6 mph - 0.14 in Rain , Thunderstorm Heavy Thunderstorms and Rain
12:22 PM 64.4 °F 62.6 °F 94% 30.04 in 3.0 mi Calm Calm - 0.15 in Rain , Thunderstorm Thunderstorms and Rain
12:37 PM 64.4 °F 62.6 °F 94% 30.05 in 10.0 mi SSW 8.1 mph - 0.15 in Thunderstorm Overcast
12:53 PM 64.0 °F 62.1 °F 93% 30.06 in 3.0 mi WSW 5.8 mph - 0.20 in Rain Light Rain
12:56 PM 64.4 °F 62.6 °F 94% 30.06 in 1.8 mi WSW 4.6 mph - 0.03 in Rain Heavy Rain
1:32 PM 64.4 °F 62.6 °F 94% 30.05 in 3.0 mi Calm Calm - 0.25 in Rain Light Rain
1:53 PM 64.0 °F 62.1 °F 93% 30.06 in 3.0 mi SSW 4.6 mph - 0.25 in Rain Light Rain
2:53 PM 64.0 °F 63.0 °F 96% 30.03 in 10.0 mi Calm Calm - 0.01 in   Overcast
3:00 PM 64.4 °F 62.6 °F 94% 30.03 in 10.0 mi South 4.6 mph - N/A   Overcast
3:33 PM 64.4 °F 62.6 °F 94% 30.03 in 10.0 mi South 5.8 mph - N/A   Overcast
3:50 PM 64.4 °F 62.6 °F 94% 30.03 in 7.0 mi South 4.6 mph - N/A   Overcast
3:53 PM 64.9 °F 63.0 °F 93% 30.03 in 4.0 mi South 4.6 mph - N/A   Overcast
4:02 PM 64.4 °F 62.6 °F 94% 30.03 in 1.8 mi South 4.6 mph - N/A   Overcast
4:25 PM 64.4 °F 62.6 °F 94% 30.03 in 3.0 mi South 5.8 mph - N/A   Overcast
4:42 PM 64.4 °F 62.6 °F 94% 30.02 in 2.0 mi South 8.1 mph - N/A   Overcast
4:53 PM 64.0 °F 62.1 °F 93% 30.02 in 2.0 mi South 6.9 mph - N/A   Overcast
5:48 PM 64.4 °F 62.6 °F 94% 30.02 in 2.0 mi South 5.8 mph - N/A   Overcast
5:53 PM 64.0 °F 62.1 °F 93% 30.02 in 2.0 mi SSE 8.1 mph - N/A   Overcast
6:53 PM 64.0 °F 62.1 °F 93% 30.02 in 2.0 mi South 10.4 mph - N/A   Overcast
7:09 PM 64.4 °F 62.6 °F 94% 30.02 in 2.0 mi South 9.2 mph - N/A   Overcast
7:53 PM 64.9 °F 63.0 °F 93% 30.02 in 2.0 mi South 9.2 mph - 0.00 in   Overcast
8:53 PM 66.0 °F 64.0 °F 93% 30.03 in 9.0 mi South 13.8 mph 21.9 mph N/A   Overcast
9:53 PM 66.9 °F 64.0 °F 90% 30.04 in 10.0 mi South 8.1 mph - N/A   Overcast
10:40 PM 64.4 °F 62.6 °F 94% 30.05 in 2.0 mi SW 6.9 mph - 0.00 in Rain Light Rain
10:53 PM 64.9 °F 63.0 °F 93% 30.05 in 2.5 mi SW 5.8 mph - 0.00 in   Overcast
11:18 PM 64.4 °F 62.6 °F 94% 30.06 in 2.5 mi West 6.9 mph - 0.01 in   Overcast
11:27 PM 64.4 °F 62.6 °F 94% 30.06 in 3.0 mi West 5.8 mph - 0.01 in   Overcast
11:44 PM 62.6 °F 62.6 °F 100% 30.06 in 3.0 mi WSW 5.8 mph - 0.01 in   Overcast
11:53 PM 63.0 °F 62.1 °F 97% 30.06 in 4.0 mi WSW 5.8 mph - 0.01 in   Overcast